User: anonymous   Login
Location: Unspecified
(0.0000°N, 0.0000°E)
Time: 20:12:37
(UTC+00:00)
Language:

STARLINK-11648 [DTC] - Orbit

View from above orbital plane
View from above orbital plane
View from above satellite
View from above satellite

Ground track
Ground track

The orbit is defined by the following mean orbital elements,

1 63313U          26145.42322378 +.00000000 +00000-0 +11318-2 0 00004
2 63313  42.9988 162.1970 0000632 223.5413 136.5405 15.70860443    07
Epoch (UTC): 25 May 2026 10:09:26
Eccentricity: 0.0000632
inclination: 42.9988°
perigee height: 356 km
apogee height: 357 km
right ascension of ascending node: 162.1970°
argument of perigee: 223.5413°
revolutions per day: 15.70860443
mean anomaly at epoch: 136.5405°

The dashed part of the orbit path shows where the satellite is in the earth's shadow,  

DLR